TimeCST,TemperatureF,Dew PointF,Humidity,Sea Level PressureIn,VisibilityMPH,Wind Direction,Wind SpeedMPH,Gust SpeedMPH,PrecipitationIn,Events,Conditions,WindDirDegrees,DateUTC
12:15 AM,30.2,26.6,86,30.10,5.0,NW,5.8,-,N/A,,Clear,320,2012-11-20 06:15:00
12:35 AM,30.2,28.4,93,30.11,6.0,WNW,9.2,-,N/A,,Clear,300,2012-11-20 06:35:00
12:55 AM,30.2,28.4,93,30.12,7.0,WNW,8.1,-,N/A,,Clear,300,2012-11-20 06:55:00
1:15 AM,30.2,28.4,93,30.11,5.0,NNW,3.5,-,N/A,,Clear,330,2012-11-20 07:15:00
1:35 AM,28.4,24.8,86,30.11,3.0,NW,4.6,-,N/A,,Clear,310,2012-11-20 07:35:00
1:55 AM,28.4,26.6,93,30.12,3.0,WNW,6.9,-,N/A,,Clear,300,2012-11-20 07:55:00
2:15 AM,28.4,26.6,93,30.11,4.0,Calm,Calm,-,N/A,,Clear,0,2012-11-20 08:15:00
2:35 AM,26.6,24.8,93,30.12,2.5,NW,5.8,-,N/A,,Clear,320,2012-11-20 08:35:00
2:55 AM,26.6,24.8,93,30.12,3.0,NW,5.8,-,N/A,,Clear,320,2012-11-20 08:55:00
3:15 AM,26.6,24.8,93,30.13,2.5,NW,5.8,-,N/A,,Clear,320,2012-11-20 09:15:00
3:35 AM,26.6,24.8,93,30.13,3.0,WNW,5.8,-,N/A,,Clear,290,2012-11-20 09:35:00
3:55 AM,26.6,24.8,93,30.12,3.0,Calm,Calm,-,N/A,,Clear,0,2012-11-20 09:55:00
4:15 AM,26.6,24.8,93,30.12,1.0,NW,3.5,-,N/A,,Clear,320,2012-11-20 10:15:00
4:35 AM,26.6,24.8,93,30.12,0.8,Calm,Calm,-,N/A,,Mostly Cloudy,0,2012-11-20 10:35:00
4:55 AM,24.8,23.0,93,30.12,1.5,Calm,Calm,-,N/A,,Clear,0,2012-11-20 10:55:00
5:15 AM,26.6,24.8,93,30.12,2.5,NW,3.5,-,N/A,,Clear,310,2012-11-20 11:15:00
5:35 AM,24.8,23.0,93,30.12,0.5,NW,3.5,-,N/A,,Mostly Cloudy,310,2012-11-20 11:35:00
5:55 AM,24.8,21.2,86,30.12,1.2,NW,5.8,-,N/A,,Overcast,320,2012-11-20 11:55:00
6:15 AM,26.6,24.8,93,30.12,0.5,NW,6.9,-,N/A,,Overcast,310,2012-11-20 12:15:00
6:35 AM,26.6,24.8,93,30.13,0.2,North,6.9,-,N/A,,Overcast,350,2012-11-20 12:35:00
6:55 AM,26.6,24.8,93,30.14,0.2,North,5.8,-,N/A,,Overcast,350,2012-11-20 12:55:00
7:15 AM,26.6,23.0,86,30.13,0.2,North,4.6,-,N/A,,Overcast,350,2012-11-20 13:15:00
7:35 AM,26.6,24.8,93,30.13,0.2,NNW,3.5,-,N/A,,Overcast,330,2012-11-20 13:35:00
7:55 AM,24.8,24.8,100,30.14,0.2,Calm,Calm,-,N/A,,Overcast,0,2012-11-20 13:55:00
8:15 AM,24.8,23.0,93,30.14,0.2,Calm,Calm,-,N/A,,Overcast,0,2012-11-20 14:15:00
8:35 AM,24.8,23.0,93,30.14,0.2,Calm,Calm,-,N/A,,Overcast,0,2012-11-20 14:35:00
8:55 AM,24.8,23.0,93,30.14,0.2,Calm,Calm,-,N/A,,Overcast,0,2012-11-20 14:55:00
9:15 AM,24.8,23.0,93,30.14,0.2,WNW,3.5,-,N/A,,Overcast,290,2012-11-20 15:15:00
9:35 AM,24.8,23.0,93,30.15,0.2,NNW,3.5,-,N/A,,Overcast,330,2012-11-20 15:35:00
9:55 AM,26.6,24.8,93,30.15,0.2,Calm,Calm,-,N/A,,Overcast,0,2012-11-20 15:55:00
10:15 AM,26.6,24.8,93,30.15,0.2,Calm,Calm,-,N/A,,Overcast,0,2012-11-20 16:15:00
10:35 AM,26.6,26.6,100,30.15,0.2,Calm,Calm,-,N/A,,Overcast,0,2012-11-20 16:35:00
10:55 AM,26.6,24.8,93,30.16,0.2,Calm,Calm,-,N/A,,Overcast,0,2012-11-20 16:55:00
11:15 AM,28.4,26.6,93,30.15,0.2,Calm,Calm,-,N/A,,Overcast,0,2012-11-20 17:15:00
11:35 AM,28.4,26.6,93,30.14,1.0,Calm,Calm,-,N/A,,Overcast,0,2012-11-20 17:35:00
11:55 AM,28.4,28.4,100,30.14,4.0,East,3.5,-,N/A,,Overcast,100,2012-11-20 17:55:00
12:15 PM,30.2,28.4,93,30.13,8.0,South,3.5,-,N/A,,Mostly Cloudy,170,2012-11-20 18:15:00
12:35 PM,32.0,30.2,93,30.13,10.0,SSE,4.6,-,N/A,,Clear,160,2012-11-20 18:35:00
12:55 PM,33.8,30.2,87,30.12,10.0,South,4.6,-,N/A,,Clear,180,2012-11-20 18:55:00
1:15 PM,35.6,30.2,81,30.12,10.0,Calm,Calm,-,N/A,,Clear,0,2012-11-20 19:15:00
1:35 PM,37.4,30.2,75,30.10,10.0,ESE,4.6,-,N/A,,Clear,120,2012-11-20 19:35:00
1:55 PM,37.4,30.2,75,30.10,10.0,SE,6.9,-,N/A,,Clear,130,2012-11-20 19:55:00
2:15 PM,39.2,28.4,65,30.09,10.0,SSE,5.8,-,N/A,,Clear,160,2012-11-20 20:15:00
2:35 PM,41.0,28.4,61,30.08,10.0,SE,4.6,-,N/A,,Clear,130,2012-11-20 20:35:00
2:55 PM,41.0,28.4,61,30.07,10.0,SSE,5.8,-,N/A,,Clear,160,2012-11-20 20:55:00
3:15 PM,41.0,28.4,61,30.06,10.0,SSE,6.9,-,N/A,,Clear,150,2012-11-20 21:15:00
3:35 PM,39.2,28.4,65,30.06,10.0,SSE,5.8,-,N/A,,Clear,150,2012-11-20 21:35:00
3:55 PM,39.2,28.4,65,30.05,10.0,SE,6.9,-,N/A,,Clear,140,2012-11-20 21:55:00
4:15 PM,39.2,28.4,65,30.06,10.0,SE,6.9,-,N/A,,Clear,140,2012-11-20 22:15:00
4:35 PM,37.4,26.6,65,30.06,10.0,SE,5.8,-,N/A,,Clear,140,2012-11-20 22:35:00
4:55 PM,35.6,26.6,70,30.05,10.0,SE,5.8,-,N/A,,Clear,130,2012-11-20 22:55:00
5:15 PM,35.6,26.6,70,30.05,10.0,South,6.9,-,N/A,,Clear,180,2012-11-20 23:15:00
5:35 PM,35.6,28.4,75,30.04,10.0,SSE,8.1,-,N/A,,Clear,150,2012-11-20 23:35:00
5:55 PM,35.6,28.4,75,30.02,10.0,SSE,9.2,-,N/A,,Clear,150,2012-11-20 23:55:00
6:15 PM,35.6,28.4,75,30.03,10.0,South,8.1,-,N/A,,Clear,170,2012-11-21 00:15:00
6:35 PM,35.6,28.4,75,30.03,10.0,SSE,8.1,-,N/A,,Clear,160,2012-11-21 00:35:00
6:55 PM,35.6,28.4,75,30.03,10.0,SSE,5.8,-,N/A,,Clear,160,2012-11-21 00:55:00
7:15 PM,35.6,28.4,75,30.02,10.0,SSE,4.6,-,N/A,,Clear,150,2012-11-21 01:15:00
7:35 PM,35.6,26.6,70,30.01,10.0,SSE,8.1,-,N/A,,Clear,150,2012-11-21 01:35:00
7:55 PM,33.8,26.6,75,30.01,10.0,SSE,8.1,-,N/A,,Clear,160,2012-11-21 01:55:00
8:15 PM,35.6,28.4,75,30.00,10.0,SSE,9.2,-,N/A,,Clear,150,2012-11-21 02:15:00
8:35 PM,35.6,26.6,70,30.01,10.0,SSE,10.4,-,N/A,,Clear,160,2012-11-21 02:35:00
8:55 PM,35.6,26.6,70,30.02,10.0,South,9.2,-,N/A,,Clear,180,2012-11-21 02:55:00
9:15 PM,35.6,26.6,70,30.01,10.0,SSE,5.8,-,N/A,,Clear,150,2012-11-21 03:15:00
9:35 PM,35.6,26.6,70,30.01,10.0,SSE,8.1,-,N/A,,Clear,160,2012-11-21 03:35:00
9:55 PM,35.6,26.6,70,30.01,10.0,SSE,8.1,-,N/A,,Clear,150,2012-11-21 03:55:00
10:15 PM,35.6,26.6,70,29.99,10.0,SE,6.9,-,N/A,,Clear,140,2012-11-21 04:15:00
10:35 PM,35.6,26.6,70,29.99,10.0,SSE,8.1,-,N/A,,Clear,160,2012-11-21 04:35:00
10:55 PM,35.6,26.6,70,29.97,10.0,SSE,5.8,-,N/A,,Clear,150,2012-11-21 04:55:00
11:15 PM,32.0,24.8,75,29.97,10.0,SSE,5.8,-,N/A,,Clear,150,2012-11-21 05:15:00
11:35 PM,33.8,24.8,70,29.96,10.0,SSE,5.8,-,N/A,,Clear,150,2012-11-21 05:35:00
11:55 PM,32.0,24.8,75,29.96,10.0,SSE,5.8,-,N/A,,Clear,160,2012-11-21 05:55:00